This demonstration page uses our WeatherBlox Daily Observations layout. Learn more.

Left ArrowRight Arrow

39.08367, -84.50855

Hourly Observations for January 12, 2021

Temp ( °F °C ) Dew Point ( °F °C ) Humidity (%) Winds ( mph kmh ) Pressure ( in mb ) Visibility ( mi km ) Precip ( " mm )
12:48 am 00:48 Cloudy 27 -3 21 -6 80 80 W 12 19 30.32 1027 8 12.87472 0 0
12:53 am 00:53 Cloudy 26 -3.3 20 -6.7 78 78 W 10 17 30.3 1026 8 12.87472 0 0
1:53 am 01:53 Cloudy 26 -3.3 21 -6.1 81 81 WSW 6 9 30.3 1026 8 12.87472 0 0
2:53 am 02:53 Cloudy 26 -3.3 21 -6.1 81 81 WSW 7 11 30.31 1026 8 12.87472 0 0
3:53 am 03:53 Cloudy 26 -3.3 21 -6.1 81 81 WSW 5 7 30.3 1026 8 12.87472 0 0
4:53 am 04:53 Cloudy 26 -3.3 20 -6.7 78 78 SSW 6 9 30.29 1026 7 11.26538 0 0
5:10 am 05:10 Cloudy 26 -3.3 20 -6.7 78 78 W 10 17 30.32 1027 7 11.26538 0 0
5:53 am 05:53 Cloudy 25 -3.9 20 -6.7 81 81 SW 8 13 30.3 1026 8 12.87472 0 0
6:38 am 06:38 Cloudy 25 -3.9 20 -6.7 81 81 WSW 9 15 30.34 1027 8 12.87472 0 0
6:53 am 06:53 Cloudy 25 -3.9 20 -6.7 81 81 WSW 8 13 30.32 1027 8 12.87472 0 0
7:53 am 07:53 Cloudy 26 -3.3 20 -6.7 78 78 SW 7 11 30.32 1027 8 12.87472 0 0
8:53 am 08:53 Cloudy 26 -3.3 21 -6.1 81 81 SW 6 9 30.32 1027 7 11.26538 0 0
9:53 am 09:53 Cloudy 27 -2.8 21 -6.1 78 78 SSW 10 17 30.32 1027 7 11.26538 0 0
10:53 am 10:53 Cloudy with Haze 27 -2.8 21 -6.1 78 78 SW 7 11 30.32 1027 4 6.43736 0 0
11:53 am 11:53 Cloudy with Haze 28 -2.2 22 -5.6 78 78 SSW 10 17 30.3 1026 4 6.43736 0 0
12:53 pm 12:53 Cloudy with Haze 30 -1.1 22 -5.6 72 72 SSW 12 19 30.26 1025 6 9.65604 0 0
1:53 pm 13:53 Cloudy 31 -0.6 22 -5.6 69 69 S 14 22 30.25 1024 8 12.87472 0 0
2:26 pm 14:26 Partly Cloudy 33 0.6 23 -5 66 66 S 12 19 30.25 1024 8 12.87472 0 0
2:53 pm 14:53 Sunny 33 0.6 23 -5 66 66 S 8 13 30.24 1024 8 12.87472 0 0
3:53 pm 15:53 Sunny 35 1.7 24 -4.4 64 64 SSW 9 15 30.22 1023 10 16.0934 0 0
4:53 pm 16:53 Sunny 34 1.1 24 -4.4 67 67 SSW 9 15 30.22 1023 9 14.48406 0 0
5:53 pm 17:53 Clear 30 -1.1 22 -5.6 72 72 SSW 6 9 30.21 1023 9 14.48406 0 0
6:53 pm 18:53 Clear 29 -1.7 22 -5.6 75 75 S 8 13 30.2 1023 10 16.0934 0 0
7:53 pm 19:53 Clear 29 -1.7 22 -5.6 75 75 SSW 5 7 30.21 1023 10 16.0934 0 0
8:53 pm 20:53 Clear 28 -2.2 21 -6.1 75 75 SW 6 9 30.2 1023 10 16.0934 0 0
9:53 pm 21:53 Clear 30 -1.1 22 -5.6 72 72 SSW 5 7 30.2 1023 10 16.0934 0 0
10:53 pm 22:53 Clear 27 -2.8 21 -6.1 78 78 Calm 30.19 1022 9 14.48406 0 0
11:53 pm 23:53 Clear 26 -3.3 20 -6.7 78 78 Calm 30.19 1022 9 14.48406 0 0

Powered by AerisWeather